Location: Zihuatanejo
(17.6330°N, 101.5500°W)
Time: 14:25:56
(UTC-06:00)

Daily predictions for brighter satellites

Satellite Brightness Start Highest point End
(mag) Time Altitude Azimuth Time Altitude Azimuth Time Altitude Azimuth
Aureole 1 Rocket 3.6 18:48:48 10° S 18:52:58 50° E 18:58:29 10° NNE
IDEFIX/ARIANE 42P 3.9 18:50:05 10° S 18:55:03 47° W 19:00:03 10° NNW
Intelsat 5-1 Rocket 2.4 18:59:56 10° NW 19:02:09 28° NNE 19:05:41 10° ENE
Cosmos 1626 2.1 18:58:57 10° S 19:02:40 83° E 19:06:25 10° N
MSX 4.4 19:00:25 10° S 19:06:03 64° WSW 19:11:43 10° NNW
Lacrosse 5 rocket 2.9 19:03:35 10° NNE 19:06:05 16° NE 19:08:41 10° E
YAOGAN 1 4.2 19:03:29 10° S 19:07:32 39° W 19:11:35 10° NNW
NOSS 3-1 (C) 3.9 19:05:02 10° S 19:10:03 35° ESE 19:15:15 10° NE
OTV 4 2.4 19:08:56 10° N 19:10:38 14° NNE 19:11:49 12° NE
CZ-3C R/B 3.5 18:56:14 10° SW 19:10:39 26° S 19:15:03 10° ESE
Cosmos 773 Rocket 4.1 19:07:13 10° SSW 19:12:20 83° WNW 19:17:31 10° NNE
Cosmos 1603 3.7 19:10:40 10° S 19:16:15 72° ESE 19:21:50 10° NNE
Palapa 6 Rocket 4.1 19:11:22 10° W 19:16:57 60° N 19:22:49 14° ENE
Cosmos 1666 Rocket 3.8 19:13:49 10° S 19:18:07 72° W 19:22:27 10° N
Cosmos 372 Rocket 3.9 19:13:50 10° NNW 19:18:56 87° ENE 19:24:03 10° SSE
Cosmos 1707 Rocket 3.7 19:16:14 10° N 19:20:25 49° E 19:24:38 10° SSE
Resurs 01 Rocket 3.1 19:19:40 10° ESE 19:22:17 16° ENE 19:22:17 16° ENE
SJ-6B 3.5 19:19:40 10° SE 19:23:18 33° ENE 19:26:58 10° NNE
Cosmos 2112 Rocket 4.2 19:20:24 10° S 19:25:21 48° E 19:30:20 10° NNE
Fermi 3.8 19:21:59 10° WNW 19:26:02 64° NNE 19:28:59 18° E
Cosmos 1933 Rocket 3.9 19:25:29 10° SSE 19:29:41 44° E 19:33:53 10° NNE
GMS 1 Rocket B 4.3 19:27:17 10° WNW 19:31:25 61° NNE 19:33:53 21° E
Cosmos 1455 2.3 19:28:49 10° N 19:32:30 48° E 19:36:13 10° SSE
Milstar 3 2.9 19:28:21 10° WNW 19:34:56 64° NNE 19:41:03 17° E
GPS 2-15 Rocket1 3.2 19:31:01 10° W 19:35:46 77° SSW 19:39:12 19° ESE
Cosmos 2278 Rocket 2.9 19:31:15 10° NNW 19:36:47 56° WSW 19:42:18 10° S
Aurora 2 Rocket 4.1 19:35:28 10° SW 19:41:06 49° SSE 19:46:02 22° E
ASC 2 Rocket 4.4 19:39:11 10° WSW 19:45:16 75° SSE 19:50:58 25° ENE
GPS 2-17 Rocket1 3.1 19:42:24 10° W 19:46:44 60° N 19:48:24 35° ENE
OAO 3 Rocket 4.2 19:42:23 10° WNW 19:47:04 46° SW 19:51:39 10° SE
Cosmos 1470 Rocket 3.6 19:46:42 10° S 19:51:05 80° W 19:55:26 10° N
Star 48 S/N 10017-12 4.4 19:51:25 10° WNW 19:53:51 51° NNE 19:54:38 41° ENE
ALOS 2.4 19:51:52 10° SSE 19:56:21 49° ENE 20:00:51 10° N
SEDSat Delta rocket 4.0 19:51:34 10° WNW 19:57:03 55° SSW 20:00:37 18° SE
Spot 2 Rocket 3.6 19:55:10 10° SSE 20:00:00 47° ENE 20:04:48 10° N
Meteor 2-3 Rocket 4.5 19:58:33 10° SSE 20:02:40 32° ESE 20:02:40 32° ESE
Helios 1B rocket 2.3 20:02:08 36° NNE 20:03:48 84° ESE 20:07:55 10° S
Atlas Centaur 2 3.7 20:00:45 10° W 20:04:38 23° SW 20:07:57 10° SSE
Cosmos 2026 Rocket 3.9 19:59:34 10° S 20:05:51 82° E 20:12:02 10° N
Cosmos 2242 Rocket 3.5 20:02:37 10° N 20:07:04 86° W 20:11:32 10° S
Iridium 4 Rocket 4.4 20:05:07 10° SSW 20:09:40 42° W 20:13:54 10° NNW
Intelsat 5-2 Rocket 4.3 19:57:30 10° WSW 20:14:46 70° SSE 20:16:46 45° E
ERBS 3.2 20:13:49 10° SW 20:16:25 47° SW 20:16:25 47° SW
Hubble Space Telescope 3.2 20:15:03 10° WSW 20:17:59 19° SSW 20:20:20 12° S
Cosmos 1869 3.8 20:14:32 10° NNW 20:18:29 58° W 20:22:26 10° S
BREEZE-M DEB (TANK) 4.1 20:19:37 10° WNW 20:21:57 24° SW 20:24:42 10° S
NOSS 3-1 (A) 3.5 20:16:38 10° SSW 20:22:11 67° WNW 20:24:36 35° N
FENGYUN 3A 3.6 20:18:57 10° S 20:24:18 82° WSW 20:29:40 10° NNW
In-Cosmos 22 Rocket 4.0 20:21:18 10° S 20:26:40 88° W 20:27:43 59° N
GPS 2-14 Rocket1 3.8 20:23:05 10° W 20:26:33 41° SW 20:26:33 41° SW
ATLAS 2AS CENTAUR R/B 4.0 20:23:27 10° SSE 20:26:56 24° SE 20:26:56 24° SE
ISS -1.0 20:26:54 10° SW 20:28:17 23° SW 20:28:17 23° SW
Cosmos 1943 4.1 20:28:50 10° SW 20:34:12 46° WNW 20:37:08 25° NNW
Cosmos 1428 Rocket 4.4 20:32:06 10° S 20:38:13 79° W 20:40:05 47° N
Centaur D-1A AC-35 4.2 19:37:05 10° W 20:41:47 57° N 20:43:51 48° NE
Lacrosse 5 rocket 3.2 20:41:41 10° WNW 20:45:11 28° WSW 20:45:26 28° SW
Resurs 01 Rocket 3.6 20:54:43 10° SSW 20:58:27 26° W 20:59:54 22° WNW
Centaur D-1AR AC-36 4.3 21:41:23 10° WNW 21:58:39 46° W 21:58:39 46° W
